Home   Weather   Parkesburg   Past weeks
Flag for USA

Past Weather in Parkesburg, Pennsylvania, USA — Yesterday and Last 2 Weeks

Now
69 °F

Sunny.


Feels Like: 69 °F
Forecast: 70 / 49 °F
Wind: 8 mph from West

Location: Lancaster Airport

Current Time: Oct 14, 2019 at 7:23:21 pm

Latest Report: Oct 14, 2019 at 5:53 pm


Visibility: 10 mi

Pressure: 29.95 "Hg

Humidity: 35%

Dew Point: 40 °F

Location of ParkesburgLocation

Past Weather in Parkesburg — Graph

°F

Parkesburg Temperature Yesterday

Maximum temperature yesterday: 65 °F (at 2:53 pm)
Minimum temperature yesterday: 39 °F (at 5:53 am)
Average temperature yesterday: 55 °F

High & Low Weather Summary for the Past Weeks

 TemperatureHumidityPressure
High94 °F (Oct 2, 12:53 pm)93% (Oct 3, 1:31 pm)30.46 "Hg (Oct 3, 1:31 pm)
Low39 °F (Oct 13, 5:53 am)27% (Oct 14, 3:53 pm)29.79 "Hg (Oct 2, 4:53 pm)
Average63 °F69%30.12 "Hg
* Reported Sep 29 5:53 pm — Oct 14 5:53 pm, Parkesburg. Weather by CustomWeather, © 2019

Note: Actual official high and low records may vary slightly from our data, if they occured in-between our weather recording intervals... More about our weather records

Advertising

Parkesburg Weather History for the Previous 24 Hours

Scroll right to see more
 ConditionsComfort  
Time TempWeatherWind HumidityBarometerVisibility
5:53 pm
Mon, Oct 14
69 °FSunny.8 mph35%29.95 "Hg10 mi
4:53 pm72 °FSunny.10 mph30%29.94 "Hg10 mi
3:53 pm73 °FSunny.16 mph27%29.94 "Hg10 mi
2:53 pm73 °FSunny.13 mph28%29.95 "Hg10 mi
1:53 pm71 °FSunny.12 mph32%29.97 "Hg10 mi
12:53 pm69 °FSunny.12 mph38%29.99 "Hg10 mi
11:53 am67 °FSunny.8 mph44%30.01 "Hg10 mi
10:53 am62 °FSunny.5 mph62%30.02 "Hg10 mi
9:53 am58 °FSunny.3 mph75%30.03 "Hg10 mi
8:53 am52 °FFog.No wind93%30.02 "Hg5 mi
8:14 am50 °FFog.No wind93%30.02 "Hg3 mi
7:53 am48 °FFog.No wind89%30.01 "Hg1 mi
7:38 am47 °FFog.3 mph90%30.00 "Hg0 mi
7:24 am47 °FFog.3 mph93%30.00 "Hg0 mi
7:02 am49 °FFog.3 mph90%29.99 "Hg1 mi
5:53 am49 °FFog.3 mph90%29.98 "Hg5 mi
4:53 am52 °FClear.3 mph89%29.96 "Hg9 mi
3:53 am53 °FClear.No wind86%29.95 "Hg10 mi
3:18 am56 °FPassing clouds.No wind81%29.96 "Hg10 mi
2:53 am57 °FOvercast.5 mph81%29.96 "Hg10 mi
1:53 am59 °FOvercast.No wind78%29.98 "Hg10 mi
12:53 am58 °FOvercast.3 mph78%30.00 "Hg10 mi
11:53 pm
Sun, Oct 13
59 °FOvercast.No wind75%30.00 "Hg10 mi
10:53 pm60 °FOvercast.6 mph69%30.01 "Hg10 mi
9:53 pm60 °FOvercast.7 mph62%30.02 "Hg10 mi
8:53 pm61 °FOvercast.9 mph56%30.01 "Hg10 mi
7:53 pm63 °FOvercast.8 mph47%30.03 "Hg10 mi
Weather by CustomWeather, © 2019

See weather overview